Location: Chanteloup
(48.8560°N, 2.7390°E)
Time: 00:11:52
(UTC+00:00)

DMSP 5D-2 F11 DEB - Visible Passes

Search period start: 15 August 2022 00:00
Search period end: 25 August 2022 00:00
Orbit: 589 x 650 km, 98.9° (Epoch: 14 August)

Date Brightness Start Highest point End Pass type
(mag) Time Alt. Az. Time Alt. Az. Time Alt. Az.
15 Aug ? 20:52:29 10° NNE 20:56:49 49° E 20:58:59 27° SSE visible
15 Aug ? 22:29:04 10° N 22:32:31 23° WNW 22:35:59 10° WSW visible
16 Aug ? 21:09:31 10° NNE 21:13:58 71° ESE 21:16:07 30° S visible
16 Aug ? 22:46:38 10° NNW 22:49:28 17° WNW 22:52:19 10° W visible
17 Aug ? 19:52:26 10° ENE 19:54:29 13° E 19:56:04 11° ESE visible
17 Aug ? 21:26:34 10° NNE 21:31:02 81° WNW 21:33:12 30° SSW visible
17 Aug ? 23:04:26 10° NNW 23:06:18 12° NW 23:08:10 10° W visible
18 Aug ? 20:08:33 10° NE 20:11:40 18° E 20:13:05 16° ESE visible
18 Aug ? 21:43:37 10° N 21:47:59 56° WNW 21:50:13 27° SW visible
19 Aug ? 20:25:01 10° NE 20:28:45 26° E 20:30:02 22° ESE visible
19 Aug ? 22:00:40 10° N 22:04:50 40° WNW 22:07:10 22° WSW visible
20 Aug ? 20:41:35 10° NNE 20:45:44 36° E 20:46:55 31° SE visible
20 Aug ? 22:17:44 10° N 22:21:35 29° WNW 22:24:03 18° WSW visible
21 Aug ? 20:58:13 10° NNE 21:02:36 52° ESE 21:03:45 40° SSE visible
21 Aug ? 22:34:51 10° N 22:38:14 22° WNW 22:40:52 13° WSW visible
22 Aug ? 21:14:53 10° NNE 21:19:22 75° ESE 21:20:30 49° S visible
22 Aug ? 22:52:03 10° NNW 22:54:48 16° WNW 22:57:33 10° W visible
23 Aug ? 19:57:18 10° ENE 19:59:33 14° E 20:00:04 13° E visible
23 Aug ? 21:31:33 10° NNE 21:36:02 78° WNW 21:37:11 49° SSW visible
23 Aug ? 23:09:31 10° NNW 23:11:15 12° NW 23:12:59 10° WNW visible
24 Aug ? 20:13:07 10° NE 20:16:20 19° E 20:16:42 19° E visible
24 Aug ? 21:48:14 10° N 21:52:36 55° WNW 21:53:48 41° WSW visible
